Tracking 29932 objects as of 3-Dec-2024
HD Live streaming from Space Station
objects crossing your sky now

STARLINK-30866

Track STARLINK-30866 now!
10-day predictions
STARLINK-30866 is classified as:


NORAD ID: 58237
Int'l Code: 2023-171H
Perigee: 565.6 km
Apogee: 566.9 km
Inclination: 43.0 °
Period: 95.8 minutes
Semi major axis: 6937 km
RCS: Unknown
Launch date: November 8, 2023
Source: United States (US)
Launch site: AIR FORCE EASTERN TEST RANGE (AFETR)
Your satellite tracking list
Your tracking list is empty




NASA's NSSDC Master Catalog

Two Line Element Set (TLE):
1 58237U 23171H   24338.17894765  .00008574  00000-0  64920-3 0  9994
2 58237  42.9998 273.6002 0000874 256.2129 103.8616 15.02525434 60310
Source of the keplerian elements: AFSPC